Tampa Macdill AFB, FL

1:41 AM EDT on May 28, 2018 (GMT -0400)
MacDill Air Force Base

Weather History for KMCF - September, 2012

Change the Weather History Date:

Friday, September 28, 2012

  Actual Average Record
Temperature  
Mean Temperature 80 °F -  
Max Temperature 90 °F 85 °F 94 °F (2017)
Min Temperature 71 °F 71 °F 69 °F (2006)
Cooling Degree Days 16    
Growing Degree Days 30 (Base 50)    
Moisture  
Dew Point 74 °F    
Average Humidity 89    
Maximum Humidity 100    
Minimum Humidity 60    
Precipitation  
Precipitation 0.38 in - - ()
Sea Level Pressure  
Sea Level Pressure 30.01 in    
Wind  
Wind Speed 6 mph (NE)    
Max Wind Speed 20 mph    
Max Gust Speed 25 mph    
Visibility 6 miles    
Events Rain , Thunderstorm    
Averages and records for this station are not official NWS values.
T = Trace of Precipitation, MM = Missing Value Source: NWS Daily Summary

Daily Weather History Graph

Daily Weather History Graph

Search for Another Location

Airport or City:

Astronomy

Sep. 28, 2012 Rise Set
Actual Time 7:21 AM EDT 7:18 PM EDT
Civil Twilight 6:58 AM EDT 7:42 PM EDT
Nautical Twilight 6:31 AM EDT 8:09 PM EDT
Astronomical Twilight 6:03 AM EDT 8:36 PM EDT
Moon 6:19 PM EDT 5:55 AM EDT
Length of Visible Light 12h 44m
Length of Day
11h 57m
Waxing Gibbous, 98% of the Moon is Illuminated
Sep 28
Waxing Gibbous
Sep 29
Full
Oct 8
Last Quarter
Oct 15
New
Oct 21
First Quarter

Hourly Weather History & Observations

Time (EDT) Temp. Heat Index Dew Point Humidity Pressure Visibility Wind Dir Wind Speed Gust Speed Precip Events Conditions
12:55 AM 74.1 °F - 71.4 °F 91% 30.07 in 7.0 mi ENE 4.6 mph - N/A   Clear
1:55 AM 73.0 °F - 71.6 °F 95% 30.06 in 10.0 mi East 8.1 mph - N/A   Clear
2:55 AM 75.0 °F - 74.7 °F 99% 30.05 in 10.0 mi East 6.9 mph - N/A   Clear
3:55 AM 73.6 °F - 72.9 °F 98% 30.03 in 9.0 mi ENE 4.6 mph - N/A   Clear
4:08 AM 73.4 °F - 73.4 °F 100% 30.03 in 7.0 mi Calm Calm - N/A   Clear
4:25 AM 73.4 °F - 73.4 °F 100% 30.03 in 6.0 mi ENE 3.5 mph - N/A   Clear
4:55 AM 72.9 °F - 72.5 °F 99% 30.03 in 10.0 mi NNE 4.6 mph - N/A   Clear
5:55 AM 72.0 °F - 71.8 °F 99% 30.03 in 10.0 mi NNE 4.6 mph - N/A   Clear
6:55 AM 71.6 °F - 71.6 °F 100% 30.03 in 10.0 mi East 5.8 mph - N/A   Clear
7:55 AM 72.9 °F - 72.9 °F 100% 30.04 in 6.0 mi ENE 4.6 mph - N/A   Clear
8:50 AM 77.0 °F - 77.0 °F 100% 30.06 in 2.5 mi ENE 8.1 mph - N/A   Scattered Clouds
8:55 AM 76.1 °F - 76.1 °F 100% 30.06 in 2.5 mi ENE 10.4 mph - N/A   Scattered Clouds
9:00 AM 77.0 °F - 77.0 °F 100% 30.07 in 3.0 mi ENE 9.2 mph - N/A   Scattered Clouds
9:55 AM 79.9 °F - 76.5 °F 89% 30.07 in 10.0 mi East 9.2 mph - N/A   Clear
10:55 AM 83.1 °F 91.6 °F 76.5 °F 80% 30.08 in 10.0 mi East 6.9 mph - N/A   Partly Cloudy
11:55 AM 85.5 °F 94.2 °F 75.2 °F 71% 30.06 in 10.0 mi Variable 6.9 mph - N/A   Clear
12:29 PM 87.8 °F 99.7 °F 77.0 °F 70% 30.06 in 10.0 mi NNW 6.9 mph - N/A   Mostly Cloudy
12:55 PM 86.4 °F 95.5 °F 75.2 °F 69% 30.04 in 10.0 mi WNW 5.8 mph - N/A   Mostly Cloudy
1:00 PM 86.0 °F 95.1 °F 75.2 °F 70% 30.04 in 10.0 mi WNW 6.9 mph - N/A   Mostly Cloudy
1:55 PM 89.1 °F 100.8 °F 76.3 °F 66% 30.02 in 10.0 mi West 5.8 mph - N/A   Partly Cloudy
2:55 PM 89.6 °F 102.2 °F 77.0 °F 66% 30.00 in 10.0 mi West 5.8 mph - N/A   Mostly Cloudy
3:55 PM 89.6 °F 99.8 °F 75.2 °F 62% 29.97 in 10.0 mi West 5.8 mph - N/A   Scattered Clouds
4:55 PM 90.0 °F 99.6 °F 74.5 °F 60% 29.95 in 10.0 mi West 4.6 mph - N/A   Clear
5:55 PM 88.7 °F 98.2 °F 74.8 °F 63% 29.95 in 10.0 mi NW 6.9 mph - N/A   Clear
6:55 PM 85.1 °F 95.8 °F 77.0 °F 77% 29.96 in 10.0 mi NNW 4.6 mph - N/A   Clear
7:37 PM 82.4 °F 90.9 °F 77.0 °F 84% 29.98 in 10.0 mi North 10.4 mph - N/A Rain Light Rain
7:47 PM 80.6 °F 86.2 °F 75.2 °F 84% 29.99 in 4.0 mi NE 19.6 mph 24.2 mph N/A Rain , Thunderstorm Thunderstorms and Rain
7:49 PM 80.6 °F 86.2 °F 75.2 °F 84% 29.99 in 2.0 mi NE 16.1 mph 25.3 mph N/A Rain , Thunderstorm Heavy Thunderstorms and Rain
7:50 PM 80.6 °F 86.2 °F 75.2 °F 84% 29.99 in 1.8 mi NE 17.3 mph 25.3 mph N/A Rain , Thunderstorm Heavy Thunderstorms and Rain
7:51 PM 80.6 °F 86.2 °F 75.2 °F 84% 29.99 in 1.5 mi NE 17.3 mph 25.3 mph N/A Rain , Thunderstorm Heavy Thunderstorms and Rain
7:52 PM 78.8 °F - 73.4 °F 83% 30.00 in 1.2 mi NE 17.3 mph 25.3 mph N/A Rain , Thunderstorm Heavy Thunderstorms and Rain
7:53 PM 78.8 °F - 73.4 °F 83% 30.00 in 1.0 mi NE 17.3 mph 25.3 mph N/A Rain , Thunderstorm Heavy Thunderstorms and Rain
7:56 PM 77.0 °F - 73.4 °F 89% 30.00 in 0.8 mi NNE 12.7 mph 25.3 mph N/A Rain , Thunderstorm Heavy Thunderstorms and Rain
7:57 PM 77.0 °F - 73.4 °F 89% 30.00 in 0.8 mi NNE 9.2 mph 25.3 mph N/A Rain , Thunderstorm Heavy Thunderstorms and Rain
8:00 PM 75.2 °F - 71.6 °F 89% 30.00 in 0.8 mi North 6.9 mph 25.3 mph N/A Rain , Thunderstorm Heavy Thunderstorms and Rain
8:03 PM 75.2 °F - 71.6 °F 89% 29.99 in 0.8 mi Calm Calm - N/A Rain , Thunderstorm Heavy Thunderstorms and Rain
8:04 PM 75.2 °F - 71.6 °F 89% 29.99 in 1.0 mi Calm Calm - N/A Rain , Thunderstorm Heavy Thunderstorms and Rain
8:05 PM 75.2 °F - 71.6 °F 89% 29.99 in 1.0 mi Calm Calm - N/A Rain , Thunderstorm Heavy Thunderstorms and Rain
8:07 PM 73.4 °F - 71.6 °F 94% 29.99 in 1.2 mi Variable 4.6 mph - N/A Rain , Thunderstorm Heavy Thunderstorms and Rain
8:11 PM 73.4 °F - 73.4 °F 100% 29.99 in 1.5 mi South 5.8 mph - N/A Rain , Thunderstorm Heavy Thunderstorms and Rain
8:13 PM 75.2 °F - 73.4 °F 94% 29.99 in 1.8 mi South 3.5 mph - N/A Rain , Thunderstorm Heavy Thunderstorms and Rain
8:14 PM 75.2 °F - 73.4 °F 94% 29.99 in 2.0 mi South 3.5 mph - N/A Rain , Thunderstorm Heavy Thunderstorms and Rain
8:15 PM 75.2 °F - 73.4 °F 94% 30.00 in 2.0 mi South 3.5 mph - N/A Rain , Thunderstorm Thunderstorms and Rain
8:16 PM 75.2 °F - 73.4 °F 94% 29.99 in 2.5 mi SSW 3.5 mph - N/A Rain , Thunderstorm Light Rain
8:19 PM 75.2 °F - 73.4 °F 94% 29.99 in 10.0 mi SSW 3.5 mph - N/A Rain , Thunderstorm Light Rain
8:29 PM 75.2 °F - 73.4 °F 94% 30.01 in 10.0 mi Calm Calm - N/A Rain , Thunderstorm Light Thunderstorms and Rain
8:40 PM 75.2 °F - 75.2 °F 100% 30.01 in 10.0 mi Calm Calm - N/A Thunderstorm Thunderstorm
8:46 PM 75.2 °F - 75.2 °F 100% 30.01 in 10.0 mi Calm Calm - N/A Thunderstorm Scattered Clouds
8:47 PM 75.2 °F - 75.2 °F 100% 30.01 in 10.0 mi Calm Calm - N/A Rain , Thunderstorm Light Rain
8:55 PM 75.6 °F - 75.2 °F 99% 30.01 in 10.0 mi Calm Calm - 0.38 in Rain Light Rain
9:14 PM 75.2 °F - 75.2 °F 100% 30.02 in 10.0 mi Calm Calm - N/A   Scattered Clouds
9:55 PM 76.8 °F - 76.3 °F 98% 30.02 in 10.0 mi SSE 8.1 mph - 0.00 in   Mostly Cloudy
10:55 PM 76.8 °F - 76.5 °F 99% 30.02 in 10.0 mi South 4.6 mph - N/A   Clear
11:55 PM 75.4 °F - 75.2 °F 99% 30.01 in 10.0 mi ESE 3.5 mph - N/A   Clear